WA6MEM Weather Reports


time (UTC)temp
C
wind
direction
speed
KPH
gust
KPH
rain 1hr
cm
rain 24hr
cm
rain mn
cm
humidity
%
barometer
mb
20260507221559 18 159 6.4 0.0 0.00 0.00 0.00 80 1013.1
20260507221058 18 172 4.8 0.0 0.00 0.00 0.00 80 1013.3
20260507220558 18 360 4.8 0.0 0.00 0.00 0.00 81 1013.3
20260507220058 17 196 6.4 0.0 0.00 0.00 0.00 81 1013.3
20260507215558 17 178 6.4 0.0 0.00 0.00 0.00 80 1013.4
20260507215058 18 187 4.8 0.0 0.00 0.00 0.00 81 1013.4
20260507214606 17 163 4.8 0.0 0.00 0.00 0.00 82 1013.4
20260507214057 17 140 4.8 0.0 0.00 0.00 0.00 81 1013.7
20260507213557 17 104 6.4 0.0 0.00 0.00 0.00 82 1013.7
20260507213058 17 205 6.4 0.0 0.00 0.00 0.00 82 1013.7
20260507212556 17 173 4.8 0.0 0.00 0.00 0.00 82 1013.8
20260507212100 17 178 6.4 0.0 0.00 0.00 0.00 82 1013.8
20260507211601 17 166 6.4 0.0 0.00 0.00 0.00 83 1013.8
20260507211056 17 145 6.4 0.0 0.00 0.00 0.00 82 1013.9
20260507210556 17 155 6.4 0.0 0.00 0.00 0.00 82 1013.9
20260507205554 18 213 4.8 0.0 0.00 0.00 0.00 82 1014.0
20260507205055 18 217 6.4 0.0 0.00 0.00 0.00 81 1014.0
20260507204555 18 216 6.4 0.0 0.00 0.00 0.00 83 1014.0
20260507204057 17 167 4.8 0.0 0.00 0.00 0.00 83 1014.2
20260507203554 17 166 6.4 0.0 0.00 0.00 0.00 83 1014.2
20260507203106 17 178 4.8 0.0 0.00 0.00 0.00 82 1014.2
20260507202552 17 172 6.4 0.0 0.00 0.00 0.00 83 1014.2
20260507202052 17 227 6.4 0.0 0.00 0.00 0.00 81 1014.2
20260507201559 17 225 4.8 0.0 0.00 0.00 0.00 81 1014.2
20260507201055 18 186 4.8 0.0 0.00 0.00 0.00 81 1014.2
20260507200553 17 182 4.8 0.0 0.00 0.00 0.00 82 1014.2
20260507200106 17 234 4.8 0.0 0.00 0.00 0.00 82 1014.2
20260507195551 17 201 4.8 0.0 0.00 0.00 0.00 83 1014.2
20260507195052 18 161 4.8 0.0 0.00 0.00 0.00 81 1014.2
20260507194551 18 197 4.8 0.0 0.00 0.00 0.00 81 1014.2
20260507194050 18 179 4.8 0.0 0.00 0.00 0.00 81 1014.5
20260507193550 18 187 4.8 0.0 0.00 0.00 0.00 80 1014.5
20260507193051 18 211 4.8 0.0 0.00 0.00 0.00 82 1014.5
20260507192551 18 165 4.8 0.0 0.00 0.00 0.00 82 1014.7
20260507192050 18 190 4.8 0.0 0.00 0.00 0.00 81 1014.7
20260507191549 17 237 4.8 0.0 0.00 0.00 0.00 82 1014.7
20260507191049 17 198 4.8 0.0 0.00 0.00 0.00 82 1014.7
20260507190551 17 180 4.8 0.0 0.00 0.00 0.00 81 1014.7
20260507190054 17 267 4.8 0.0 0.00 0.00 0.00 81 1014.7
20260507185551 17 164 4.8 0.0 0.00 0.00 0.00 83 1014.8
20260507185046 17 169 4.8 0.0 0.00 0.00 0.00 83 1014.8
20260507184551 17 136 4.8 0.0 0.00 0.00 0.00 82 1014.8
20260507184044 17 171 4.8 0.0 0.00 0.00 0.00 84 1014.8
20260507183544 17 204 4.8 0.0 0.00 0.00 0.00 84 1014.8
20260507183048 17 161 4.8 0.0 0.00 0.00 0.00 85 1014.8
20260507182545 17 159 4.8 0.0 0.00 0.00 0.00 83 1014.8
20260507182046 17 186 4.8 0.0 0.00 0.00 0.00 83 1014.8
20260507181543 17 219 4.8 0.0 0.00 0.00 0.00 83 1014.8
20260507181042 17 201 4.8 0.0 0.00 0.00 0.00 84 1014.9
20260507180544 17 186 3.2 0.0 0.00 0.00 0.00 84 1014.9
20260507180046 17 142 3.2 0.0 0.00 0.00 0.00 85 1014.9
20260507175546 17 160 4.8 0.0 0.00 0.00 0.00 84 1014.8
20260507175038 16 239 4.8 0.0 0.00 0.00 0.00 85 1014.8
20260507174539 16 172 4.8 0.0 0.00 0.00 0.00 86 1014.8
20260507174037 16 176 3.2 0.0 0.00 0.00 0.00 86 1015.0
20260507173537 16 200 3.2 0.0 0.00 0.00 0.00 87 1015.0
20260507173037 16 161 3.2 0.0 0.00 0.00 0.00 87 1015.0
20260507172538 16 123 4.8 0.0 0.00 0.00 0.00 87 1015.0
20260507172036 16 149 4.8 0.0 0.00 0.00 0.00 87 1015.0
20260507171536 16 132 4.8 0.0 0.00 0.00 0.00 86 1015.0
20260507171036 16 188 4.8 0.0 0.00 0.00 0.00 86 1015.0
20260507170536 16 159 3.2 0.0 0.00 0.00 0.00 85 1015.0
20260507170036 16 184 3.2 0.0 0.00 0.00 0.00 87 1015.0
20260507165533 16 209 3.2 0.0 0.00 0.00 0.00 88 1015.0
20260507165034 16 238 3.2 0.0 0.00 0.00 0.00 88 1015.0
20260507164541 16 166 3.2 0.0 0.00 0.00 0.00 86 1015.0
20260507164032 16 151 3.2 0.0 0.00 0.00 0.00 88 1015.0
20260507163531 16 221 3.2 0.0 0.00 0.00 0.00 88 1015.0
20260507163031 16 213 3.2 0.0 0.00 0.00 0.00 88 1015.0
20260507162531 16 192 3.2 0.0 0.00 0.00 0.00 89 1015.0
20260507162030 15 207 3.2 0.0 0.00 0.00 0.00 88 1015.0
20260507161530 15 211 1.6 0.0 0.00 0.00 0.00 89 1015.0
20260507161028 15 113 1.6 0.0 0.00 0.00 0.00 90 1015.1
20260507160527 15 163 3.2 0.0 0.00 0.00 0.00 90 1015.1
20260507160028 15 169 3.2 0.0 0.00 0.00 0.00 90 1015.1
20260507155525 15 165 3.2 0.0 0.00 0.00 0.00 91 1015.0
20260507155025 15 165 3.2 0.0 0.00 0.00 0.00 91 1015.0
20260507154525 15 157 3.2 0.0 0.00 0.00 0.00 90 1015.0
20260507154025 15 190 3.2 0.0 0.00 0.00 0.00 90 1015.0
20260507153525 15 146 3.2 0.0 0.00 0.00 0.00 90 1015.0
20260507153025 15 179 1.6 0.0 0.00 0.00 0.00 91 1015.0
20260507152524 15 136 1.6 0.0 0.00 0.00 0.00 90 1015.1
20260507152024 15 196 3.2 0.0 0.00 0.00 0.00 90 1015.1
20260507151523 15 155 3.2 0.0 0.00 0.00 0.00 90 1015.1
20260507151023 14 153 1.6 0.0 0.00 0.00 0.00 90 1015.1
20260507150521 14 148 1.6 0.0 0.00 0.00 0.00 90 1015.1
20260507150024 13 28 1.6 0.0 0.00 0.00 0.00 91 1015.1
20260507145521 13 169 1.6 0.0 0.00 0.00 0.00 91 1015.0
20260507145018 13 169 1.6 0.0 0.00 0.00 0.00 91 1015.0
20260507144524 13 164 1.6 0.0 0.00 0.00 0.00 91 1015.0
20260507144017 13 164 1.6 0.0 0.00 0.00 0.00 91 1015.1
20260507143515 13 164 1.6 0.0 0.00 0.00 0.00 92 1015.1
20260507143015 13 164 0.0 0.0 0.00 0.00 0.00 92 1015.1
20260507142514 13 164 0.0 0.0 0.00 0.00 0.00 93 1015.0
20260507142015 12 164 0.0 0.0 0.00 0.00 0.00 93 1015.0
20260507141514 12 164 0.0 0.0 0.00 0.00 0.00 93 1015.0
20260507141014 12 164 0.0 0.0 0.00 0.00 0.00 94 1014.8
20260507140515 12 164 0.0 0.0 0.00 0.00 0.00 94 1014.8
20260507140013 12 164 0.0 0.0 0.00 0.00 0.00 94 1014.8
20260507135512 12 164 0.0 0.0 0.00 0.00 0.00 94 1014.7
20260507135012 11 164 0.0 0.0 0.00 0.00 0.00 94 1014.7
20260507134513 11 164 0.0 0.0 0.00 0.00 0.00 94 1014.7
20260507134014 11 164 0.0 0.0 0.00 0.00 0.00 94 1014.6
20260507133511 11 164 0.0 0.0 0.00 0.00 0.00 93 1014.6
20260507133011 11 164 0.0 0.0 0.00 0.00 0.00 93 1014.6
20260507132511 11 164 0.0 0.0 0.00 0.00 0.00 93 1014.6
20260507132011 11 164 0.0 0.0 0.00 0.00 0.00 93 1014.6
20260507131511 11 164 1.6 0.0 0.00 0.00 0.00 93 1014.6
20260507131011 11 164 1.6 0.0 0.00 0.00 0.00 93 1014.5
20260507130510 11 156 0.0 0.0 0.00 0.00 0.00 92 1014.5
20260507130010 11 60 0.0 0.0 0.00 0.00 0.00 92 1014.5
20260507125508 11 60 0.0 0.0 0.00 0.00 0.00 91 1014.4
20260507125008 11 60 0.0 0.0 0.00 0.00 0.00 92 1014.4
20260507124510 11 60 0.0 0.0 0.00 0.00 0.00 92 1014.4
20260507124008 11 60 0.0 0.0 0.00 0.00 0.00 92 1014.4
20260507123512 11 60 0.0 0.0 0.00 0.00 0.00 91 1014.4
20260507123009 11 60 0.0 0.0 0.00 0.00 0.00 91 1014.4
20260507122511 11 60 0.0 0.0 0.00 0.00 0.00 92 1014.4
20260507122007 11 60 0.0 0.0 0.00 0.00 0.00 92 1014.4
20260507121507 11 60 0.0 0.0 0.00 0.00 0.00 92 1014.4
20260507121007 11 60 0.0 0.0 0.00 0.00 0.00 92 1014.3
20260507120506 11 60 0.0 0.0 0.00 0.00 0.00 92 1014.3
20260507120007 11 60 0.0 0.0 0.00 0.00 0.00 91 1014.3
20260507115506 11 60 0.0 0.0 0.00 0.00 0.00 91 1014.3
20260507115008 11 60 0.0 0.0 0.00 0.00 0.00 90 1014.3
20260507114506 11 60 0.0 0.0 0.00 0.00 0.00 91 1014.3
20260507114006 11 60 1.6 0.0 0.00 0.00 0.00 92 1014.2
20260507113508 11 60 1.6 0.0 0.00 0.00 0.00 92 1014.2
20260507113012 11 60 1.6 0.0 0.00 0.00 0.00 91 1014.2
20260507112507 11 60 1.6 0.0 0.00 0.00 0.00 91 1014.3
20260507112005 11 60 1.6 0.0 0.00 0.00 0.00 91 1014.3
20260507111504 11 60 1.6 0.0 0.00 0.00 0.00 91 1014.3
20260507111003 11 60 1.6 0.0 0.00 0.00 0.00 91 1014.4
20260507110503 11 60 3.2 0.0 0.00 0.00 0.00 91 1014.4
20260507110003 11 39 3.2 0.0 0.00 0.00 0.00 92 1014.5
20260507105502 11 39 1.6 0.0 0.00 0.00 0.00 90 1014.5
20260507105003 11 250 1.6 0.0 0.00 0.00 0.00 91 1014.5
20260507104502 11 250 0.0 0.0 0.00 0.00 0.00 91 1014.6
20260507104001 11 250 0.0 0.0 0.00 0.00 0.00 91 1014.6
20260507103501 11 250 0.0 0.0 0.00 0.00 0.00 91 1014.6
20260507103100 11 250 0.0 0.0 0.00 0.00 0.00 91 1014.6
20260507102600 11 250 0.0 0.0 0.00 0.00 0.00 91 1014.7
20260507102100 11 250 0.0 0.0 0.00 0.00 0.00 91 1014.7
20260507101613 11 250 0.0 0.0 0.00 0.00 0.00 91 1014.7
20260507101102 11 250 0.0 0.0 0.00 0.00 0.00 91 1014.7
20260507100559 11 250 0.0 0.0 0.00 0.00 0.00 91 1014.7
20260507095558 11 250 1.6 0.0 0.00 0.00 0.00 90 1014.8
20260507095056 11 250 1.6 0.0 0.00 0.00 0.00 90 1014.8
20260507094604 11 250 0.0 0.0 0.00 0.00 0.00 90 1014.8
20260507094059 11 250 0.0 0.0 0.00 0.00 0.00 90 1014.9
20260507093555 11 250 0.0 0.0 0.00 0.00 0.00 89 1014.9
20260507093054 12 250 0.0 0.0 0.00 0.00 0.00 90 1014.9
20260507092554 12 250 1.6 0.0 0.00 0.00 0.00 90 1014.9
20260507092056 12 250 0.0 0.0 0.00 0.00 0.00 90 1014.9
20260507091553 12 166 0.0 0.0 0.00 0.00 0.00 90 1014.9
20260507091053 12 166 0.0 0.0 0.00 0.00 0.00 90 1015.1
20260507090553 12 166 0.0 0.0 0.00 0.00 0.00 89 1015.1
20260507090052 12 166 1.6 0.0 0.00 0.00 0.00 89 1015.1
20260507085553 12 166 1.6 0.0 0.00 0.00 0.00 89 1015.2
20260507085051 12 166 1.6 0.0 0.00 0.00 0.00 89 1015.2
20260507084557 12 166 0.0 0.0 0.00 0.00 0.00 89 1015.2
20260507084052 12 202 0.0 0.0 0.00 0.00 0.00 89 1015.4
20260507083549 12 248 0.0 0.0 0.00 0.00 0.00 88 1015.4
20260507083051 12 247 0.0 0.0 0.00 0.00 0.00 89 1015.4
20260507082548 12 247 0.0 0.0 0.00 0.00 0.00 88 1015.4
20260507082048 12 248 1.6 0.0 0.00 0.00 0.00 88 1015.4
20260507081548 12 248 1.6 0.0 0.00 0.00 0.00 88 1015.4
20260507081048 12 211 3.2 0.0 0.00 0.00 0.00 88 1015.4
20260507080548 12 258 3.2 0.0 0.00 0.00 0.00 88 1015.4
20260507075547 12 268 3.2 0.0 0.00 0.00 0.00 88 1015.4
20260507075047 12 277 4.8 0.0 0.00 0.00 0.00 88 1015.4
20260507074548 12 293 4.8 0.0 0.00 0.00 0.00 88 1015.4
20260507074045 12 302 4.8 0.0 0.00 0.00 0.00 88 1015.5
20260507073545 12 283 4.8 0.0 0.00 0.00 0.00 88 1015.5
20260507073050 12 259 6.4 0.0 0.00 0.00 0.00 89 1015.5
20260507072543 12 289 6.4 0.0 0.00 0.00 0.00 89 1015.7
20260507072042 12 285 6.4 0.0 0.00 0.00 0.00 90 1015.7
20260507071542 12 302 6.4 0.0 0.00 0.00 0.00 90 1015.7
20260507071043 12 269 6.4 0.0 0.00 0.00 0.00 91 1015.7
20260507070542 12 296 8.0 0.0 0.00 0.00 0.00 91 1015.7
20260507070040 12 276 8.0 0.0 0.00 0.00 0.03 91 1015.7
20260507065542 12 316 8.0 0.0 0.00 0.00 0.03 91 1015.6
20260507065039 12 277 8.0 0.0 0.00 0.00 0.03 91 1015.6
20260507064539 12 283 6.4 0.0 0.00 0.00 0.03 91 1015.6
20260507064039 12 343 6.4 0.0 0.00 0.00 0.03 91 1015.8
20260507063540 12 288 6.4 0.0 0.00 0.00 0.03 91 1015.8
20260507063040 12 261 6.4 0.0 0.00 0.00 0.03 91 1015.8
20260507062539 12 307 6.4 0.0 0.00 0.00 0.03 91 1015.9
20260507062039 12 316 6.4 0.0 0.00 0.00 0.03 91 1015.9
20260507061539 12 275 8.0 0.0 0.00 0.00 0.03 91 1015.9
20260507061038 12 301 6.4 0.0 0.00 0.00 0.03 91 1015.8
20260507060539 12 292 6.4 0.0 0.00 0.00 0.03 91 1015.8
20260507060038 12 299 6.4 0.0 0.00 0.00 0.03 91 1015.8
20260507055538 12 283 6.4 0.0 0.00 0.00 0.03 91 1015.9
20260507055039 12 275 6.4 0.0 0.00 0.00 0.03 91 1015.9
20260507054539 12 222 6.4 0.0 0.00 0.00 0.03 91 1015.9
20260507054038 12 284 4.8 0.0 0.00 0.00 0.03 91 1015.8
20260507053538 12 273 3.2 0.0 0.00 0.00 0.03 91 1015.8
20260507053038 12 262 3.2 0.0 0.00 0.00 0.03 91 1015.8
20260507052537 12 273 4.8 0.0 0.00 0.00 0.03 90 1015.9
20260507052037 12 271 4.8 0.0 0.00 0.00 0.03 90 1015.9
20260507051537 12 302 4.8 0.0 0.00 0.00 0.03 90 1015.9
20260507051036 12 260 4.8 0.0 0.00 0.00 0.03 90 1015.8
20260507050538 12 278 4.8 0.0 0.00 0.00 0.03 90 1015.8
20260507050037 12 259 4.8 0.0 0.00 0.00 0.03 90 1015.8
20260507045536 12 286 3.2 0.0 0.00 0.00 0.03 90 1015.8
20260507045035 12 234 4.8 0.0 0.00 0.00 0.03 90 1015.8
20260507044537 12 296 3.2 0.0 0.00 0.00 0.03 91 1015.8
20260507044036 12 273 3.2 0.0 0.00 0.00 0.03 91 1015.6
20260507043536 12 217 3.2 0.0 0.00 0.00 0.03 91 1015.6
20260507043036 12 232 4.8 0.0 0.00 0.00 0.03 91 1015.6
20260507042537 12 189 4.8 0.0 0.00 0.00 0.03 91 1015.6
20260507042035 12 169 4.8 0.0 0.00 0.00 0.03 90 1015.6
20260507041536 12 229 4.8 0.0 0.00 0.00 0.03 89 1015.6
20260507041035 13 211 4.8 0.0 0.00 0.00 0.03 89 1015.6
20260507040536 13 194 3.2 0.0 0.00 0.00 0.03 88 1015.6
20260507040036 13 217 3.2 0.0 0.00 0.00 0.03 88 1015.6
20260507035534 13 167 3.2 0.0 0.00 0.00 0.03 87 1015.5
20260507035034 13 157 3.2 0.0 0.00 0.00 0.03 86 1015.5
20260507034537 13 159 4.8 0.0 0.00 0.00 0.03 84 1015.5
20260507034034 13 151 6.4 0.0 0.00 0.00 0.03 83 1015.3
20260507033534 13 276 6.4 0.0 0.00 0.00 0.03 83 1015.3
20260507033034 13 162 6.4 0.0 0.00 0.00 0.03 83 1015.3
20260507032535 13 237 8.0 0.0 0.00 0.00 0.03 83 1015.0
20260507032038 13 298 8.0 0.0 0.00 0.00 0.03 85 1015.0
20260507031534 13 263 6.4 0.0 0.00 0.00 0.03 86 1015.0
20260507031036 13 306 8.0 0.0 0.00 0.00 0.03 85 1015.1
20260507030534 13 269 8.0 0.0 0.00 0.00 0.03 86 1015.1
20260507030032 13 247 9.7 0.0 0.00 0.00 0.03 86 1015.1
20260507025533 13 244 9.7 0.0 0.00 0.00 0.03 85 1015.0
20260507025033 13 286 8.0 0.0 0.00 0.00 0.03 85 1015.0
20260507024533 13 244 8.0 0.0 0.00 0.00 0.03 83 1015.0
20260507024032 13 299 9.7 0.0 0.00 0.00 0.03 82 1014.8
20260507023532 13 259 9.7 0.0 0.00 0.00 0.03 81 1014.8
20260507023034 14 270 9.7 0.0 0.00 0.00 0.03 80 1014.8
20260507022533 14 271 9.7 0.0 0.00 0.00 0.03 79 1014.7
20260507022034 14 229 9.7 0.0 0.00 0.00 0.03 80 1014.7
20260507021534 13 298 9.7 0.0 0.00 0.00 0.03 82 1014.7
20260507021034 14 292 9.7 0.0 0.00 0.00 0.03 83 1014.7
20260507020532 14 309 8.0 0.0 0.00 0.00 0.03 83 1014.7
20260507020040 15 242 6.4 0.0 0.00 0.00 0.03 82 1014.7
20260507015531 15 127 6.4 0.0 0.00 0.00 0.03 81 1014.7
20260507015031 14 217 8.0 0.0 0.00 0.00 0.03 81 1014.7
20260507014532 14 250 9.7 0.0 0.00 0.00 0.03 80 1014.7
20260507014031 14 141 9.7 0.0 0.00 0.00 0.03 81 1014.6
20260507013531 15 286 8.0 0.0 0.00 0.00 0.03 82 1014.6
20260507013046 15 294 8.0 0.0 0.00 0.00 0.03 81 1014.6
20260507012531 15 333 9.7 0.0 0.00 0.00 0.03 81 1014.6
20260507012031 15 281 9.7 0.0 0.00 0.00 0.03 78 1014.6
20260507011533 15 259 9.7 0.0 0.00 0.00 0.03 77 1014.6
20260507011030 15 308 8.0 0.0 0.00 0.00 0.03 77 1014.6
20260507010530 15 290 8.0 0.0 0.00 0.00 0.03 76 1014.6
20260507010035 15 263 8.0 0.0 0.00 0.00 0.03 77 1014.6
20260507005530 15 281 9.7 0.0 0.00 0.00 0.03 78 1014.6
20260507005029 15 315 8.0 0.0 0.00 0.00 0.03 75 1014.6
20260507004529 15 294 8.0 0.0 0.00 0.00 0.03 79 1014.6
20260507004029 15 319 8.0 0.0 0.00 0.00 0.03 79 1014.6
20260507003530 15 261 6.4 0.0 0.00 0.00 0.03 79 1014.6
20260507003040 16 237 4.8 0.0 0.00 0.00 0.03 81 1014.6
20260507002529 16 235 4.8 0.0 0.00 0.00 0.03 80 1014.5
20260507002029 16 228 4.8 0.0 0.00 0.00 0.03 80 1014.5
20260507001530 16 191 4.8 0.0 0.00 0.00 0.03 80 1014.5
20260507001029 16 225 4.8 0.0 0.00 0.00 0.03 81 1014.5
20260507000528 16 212 4.8 0.0 0.00 0.00 0.03 80 1014.5
20260507000034 16 191 4.8 0.0 0.00 0.00 0.03 80 1014.5
20260506235528 16 315 4.8 0.0 0.00 0.00 0.03 79 1014.5
20260506235027 16 242 4.8 0.0 0.00 0.00 0.03 80 1014.5
20260506234528 17 217 4.8 0.0 0.00 0.00 0.03 79 1014.5
20260506234027 17 248 6.4 0.0 0.00 0.00 0.03 80 1014.5
20260506233527 16 175 8.0 0.0 0.00 0.00 0.03 78 1014.5
20260506233028 16 190 6.4 0.0 0.00 0.00 0.03 76 1014.5
20260506232526 17 360 6.4 0.0 0.00 0.00 0.03 73 1014.7
20260506232026 17 214 8.0 0.0 0.00 0.00 0.03 74 1014.7
20260506231526 17 227 6.4 0.0 0.00 0.00 0.03 75 1014.7
20260506231026 17 236 6.4 0.0 0.00 0.00 0.03 72 1014.9
20260506230526 17 360 8.0 0.0 0.00 0.00 0.03 72 1014.9
20260506230025 17 207 8.0 0.0 0.00 0.00 0.03 73 1014.9
20260506225524 17 200 6.4 0.0 0.00 0.00 0.03 73 1015.0
20260506225024 17 360 6.4 0.0 0.00 0.00 0.03 74 1015.0
20260506224525 17 360 6.4 0.0 0.00 0.00 0.03 74 1015.0
20260506224029 17 360 6.4 0.0 0.00 0.00 0.03 73 1015.2
20260506223523 17 360 8.0 0.0 0.00 0.00 0.03 75 1015.2
20260506223024 17 209 9.7 0.0 0.00 0.00 0.03 72 1015.2
20260506222523 17 209 8.0 0.0 0.00 0.00 0.03 73 1015.4
20260506222028 17 360 6.4 0.0 0.00 0.00 0.03 72 1015.4